Showing default

KUIPER-00012, 63728

Orbit data source: Space-Track

KUIPER-00012, 63728 is a payload satellite owned by Kuiper Systems (US) in LEO that was launched on Mon, 28 Apr 2025 UTC via an ATLAS V 551 launch vehicle from the Air Force Eastern Test Range (AFETR). Payload-class satellites include a variety of spacecraft equipped with specific instruments for various scientific and technological missions. These include communications satellites like Starlink; space stations such as the ISS; scientific satellites like the Hubble; Earth observation satellites from companies like Planet Labs, Umbra, and HawkEye 360; GPS; miniature CubeSats for education and research; and military/defense satellites.

Loading next visibility...
Identifier
63728, 2025-088E
Orbit
LEO
Country
Flag of USUS
Related business
Manufacturer
Kuiper Systems
Mission
Operational Commercial Communications
Bus & Motor
KUIPER, Unknown motor
Mass
~490 kg wet, ~490 kg dry
Launch date (UTC)
2025-04-28 (8 months ago)
Launch vehicle
ATLAS V 551
Launch site
Air Force Eastern Test Range (AFETR)
Object type
Payload
Rocket body
Debris
Shape & HBR
Box + 2 Pan, 3.4 m
Radar Cross Section
2.326 m², Large (>1 m²)

Expand to show TLE details & history
Last TLE update: 1 day ago

TLE from 1 day ago
0 KUIPER-00012
1 63728U 25088E   25348.48306519  .00003845  00000-0  57323-3 0  9990
2 63728  51.9006  90.8582 0008280 198.4317 161.6346 14.76798406 35324
Epoch: 2025-12-14T11:35Z
TLE epoch observation values (Epoch: 2025-12-14T11:35:36.832Z)
Latitude
0.00006°
Longitude
-166.44056°
Altitude
645.709 km
Speed
7.533 km/s
True Right ascension
06h 03m 25s
True Declination
0° 00' 00"
Sunlit
Object was in full shadow at epoch
Visualization orbit readout
Latitude
Unknown
Longitude
Unknown
Altitude
Unknown
Speed
Unknown
Apparent Right ascension
Unknown
Apparent Declination
Unknown
Sunlit
N/A
Visualization observer readout
Local Sidereal Time
15:11:10
Azimuth
Unknown
Elevation
Unknown
Doppler factor
Unknown
Orbital elements
Apogee altitude
645.71 km
Perigee altitude
634.088 km
Semi-major axis
7,018.036 km
Eccentricity
0.00083
Inclination
51.9006°
RAAN
90.8582°
Arg. of periapsis
198.4317°
True anomaly
161.66447°
Mean anomaly
161.6346°
Eccentric anomaly
161.64954°
Mean motion
3.69164 °/min
Orbital period
97.52 mins
BSTAR
0.00057323
Loading maneuver chart data...
Computing Atmospheric mass density...
Loading historical data...
Loading historical data...
Loading historical data...
Loading historical data...
Loading historical data...
Loading historical data...
Loading historical data...

Documentation

Showing up to 5 results
|